User: anonymous   Login
Location: B
(0.0000°N, 0.0000°E)
Time: 16:14:48
(UTC+02:00)
Language:

Cosmos 1025 Rocket - Orbit

View from above orbital plane
View from above orbital plane
View from above satellite
View from above satellite

Ground track
Ground track

The orbit data is extracted from the following two-line orbital elements,

1 10974U 78067B   16243.57341196  .00000133  00000-0  11998-4 0  9990
2 10974  82.4797  84.4262 0016350 222.7577 137.2369 14.87175417 64368
Epoch (UTC): 30 August 2016 13:45:42
Eccentricity: 0.0016350
inclination: 82.4797°
perigee height: 595 km
apogee height: 618 km
right ascension of ascending node: 84.4262°
argument of perigee: 222.7577°
revolutions per day: 14.87175417
mean anomaly at epoch: 137.2369°
orbit number at epoch: 6436

The dashed part of the orbit path shows where the satellite is in the earth's shadow,  

DLR